Wetbulb
55.73 56.04 55.97 56.06 55.75 55.80 56.03 55.22 55.22 55.15 55.60 55.42 55.58 56.05 56.20 56.45 56.65 56.57 54.89 58.44 59.85 62.00 58.01 52.77 54.58 55.18 54.61 52.92 54.70 54.98 48.79 47.03 48.24 49.17 50.89 54.78 53.72 56.52 57.52 55.24 56.24 58.24 60.03 62.45 63.96
55.24 55.70 55.32 55.61 55.92 55.76 55.43 55.07 54.99 55.06 55.31 55.49 55.47 55.81 55.82 56.33 54.83 54.86 60.06 63.79 62.58 59.95 54.39 53.56 51.29 52.13 50.72 51.12 51.82 50.70 47.75 48.24 52.17 52.70 52.31 54.30 54.23 55.63 55.43 54.49 54.99 56.26 58.98 62.79 63.81
55.03 55.08 55.43 55.58 55.59 55.35 54.97 54.73 54.66 54.87 55.12 55.61 55.44 55.47 55.52 56.07 54.94 55.95 62.51 63.21 62.28 59.50 57.03 55.59 52.23 51.27 50.05 51.36 50.83 50.31 47.97 51.12 52.31 53.82 54.26 53.34 53.42 55.53 54.92 53.41 55.81 55.50 58.13 60.56 62.27
53.81 54.31 54.57 54.55 54.49 53.94 54.04 54.34 54.47 54.96 55.11 55.32 55.46 55.23 56.01 55.19 49.47 55.15 62.96 61.69 60.96 58.83 59.08 55.51 52.22 48.74 48.30 48.10 51.19 47.59 50.50 51.51 52.50 53.61 53.15 52.16 54.26 53.18 55.31 56.26 58.79 58.77 60.08 59.44 59.59
53.42 53.27 53.46 53.47 53.51 53.88 53.96 54.04 54.41 54.55 54.71 54.97 55.21 55.29 55.71 54.52 53.53 58.28 63.98 61.74 59.15 58.50 56.49 53.45 50.96 50.51 47.27 48.97 49.92 48.66 49.76 51.00 51.91 51.99 51.93 52.56 51.67 52.45 53.82 57.40 59.51 59.46 59.38 57.90 57.58
52.82 53.02 52.74 53.13 53.17 53.60 53.62 54.35 54.75 54.54 54.60 54.95 55.38 55.22 53.99 49.71 59.64 58.18 58.01 57.67 57.87 55.59 54.59 53.25 51.83 52.38 49.45 49.07 48.53 50.21 50.15 50.51 51.12 51.03 51.42 49.82 50.11 51.65 53.85 57.32 56.48 58.35 58.18 57.45 57.01
52.80 52.54 52.76 52.54 52.95 53.18 53.64 54.42 54.74 54.60 55.09 55.40 55.66 55.85 52.61 52.67 56.65 59.61 58.57 56.69 57.11 54.84 52.14 53.99 53.33 50.87 50.67 47.99 50.83 49.87 46.71 48.36 49.22 50.01 49.68 51.22 47.78 48.36 52.31 53.48 52.81 54.09 56.75 57.67 57.27
52.88 52.69 52.28 52.55 52.81 53.26 53.88 54.10 54.50 55.60 56.03 56.00 55.70 55.88 51.23 57.17 57.05 56.77 58.38 56.00 56.27 54.99 53.55 53.94 53.79 51.10 49.55 50.70 48.70 46.25 46.64 42.76 47.48 48.70 49.22 49.17 43.78 49.40 52.33 52.38 51.69 52.58 54.37 55.64 56.29
52.20 52.36 52.26 52.49 52.92 53.21 53.64 53.70 54.85 57.03 56.96 56.12 54.99 54.63 52.23 57.21 51.68 55.62 56.27 53.78 54.45 54.11 54.03 53.74 52.08 48.62 48.65 45.47 43.63 45.20 40.21 42.06 44.07 48.86 48.33 47.83 45.00 49.53 51.77 51.78 51.93 53.26 54.24 54.55 55.46
52.17 52.65 52.04 52.52 53.11 53.25 53.60 53.38 56.90 54.76 55.80 57.78 57.85 52.75 54.67 52.83 52.32 54.69 56.40 55.04 51.88 51.67 51.07 50.67 49.67 46.38 46.31 44.22 37.71 40.65 41.94 43.77 43.70 47.15 47.85 45.74 45.42 48.60 50.73 50.67 51.62 52.34 53.15 54.04 55.03
52.15 52.21 52.09 53.21 53.19 53.31 53.27 57.03 54.18 53.94 56.40 53.75 53.43 53.29 53.32 54.43 55.85 53.62 54.30 52.49 51.95 50.02 45.34 49.31 45.58 43.23 45.64 47.03 46.70 45.75 44.19 42.82 45.20 48.04 46.56 45.77 45.91 47.53 49.71 49.86 49.98 51.96 53.07 54.02 54.96
51.92 52.00 52.77 53.31 53.41 53.58 53.38 55.60 54.02 54.63 48.90 55.13 55.32 52.83 53.88 54.71 50.14 51.69 54.84 48.98 48.23 44.74 47.69 46.17 43.17 47.23 47.88 46.80 45.46 45.04 43.09 42.20 44.55 46.61 45.78 45.02 44.64 47.46 48.80 49.46 50.50 51.09 52.01 53.62 54.89
51.96 52.03 52.84 53.50 53.52 53.38 56.77 55.13 58.30 57.49 49.32 52.36 53.37 50.89 51.56 53.09 49.58 50.55 52.17 49.82 46.49 45.19 45.79 43.82 45.85 48.51 46.45 44.94 43.89 43.62 42.09 41.94 41.91 44.99 46.14 44.86 43.20 45.11 47.97 49.79 50.82 51.75 52.67 53.49 53.90
51.87 52.02 52.91 52.88 51.49 58.19 56.37 58.26 57.74 58.57 44.87 49.20 48.22 50.09 52.06 52.17 48.52 53.66 54.03 50.35 47.46 44.41 46.02 45.48 47.94 46.40 45.09 43.27 44.13 40.21 45.26 44.37 43.33 41.80 37.42 44.74 36.20 43.14 46.43 47.70 49.69 50.57 51.69 52.45 53.43
51.41 51.95 52.27 52.27 55.34 56.13 56.84 57.91 57.96 57.02 37.85 48.24 49.25 54.87 52.49 49.20 49.93 50.24 54.10 50.94 45.56 45.72 46.42 44.10 45.30 44.65 43.60 43.82 45.47 42.45 45.86 44.03 43.23 41.36 40.68 40.61 37.74 41.48 46.06 44.85 47.33 50.42 51.37 51.94 53.26
51.27 51.43 51.60 57.13 56.44 59.49 58.23 58.66 57.92 45.94 38.09 46.23 48.93 47.35 47.16 48.94 49.03 50.50 49.82 51.72 50.35 46.25 46.77 45.79 49.08 47.20 46.14 47.06 46.64 46.73 44.15 43.54 42.94 40.92 34.96 39.11 38.73 39.51 42.95 45.71 47.47 50.24 50.73 51.82 52.36
50.55 50.12 49.91 56.83 54.40 58.98 58.33 55.58 45.38 40.44 49.88 46.35 45.52 47.75 46.85 46.24 47.29 48.30 47.11 46.23 43.78 40.81 41.11 45.24 45.83 48.14 48.41 44.67 46.70 45.15 41.49 34.70 33.16 34.03 33.18 41.45 38.73 40.80 46.23 47.00 48.25 49.13 49.96 50.93 51.10
49.02 48.96 52.74 56.75 59.00 59.77 56.57 49.58 39.02 46.06 46.90 49.64 47.25 46.77 44.04 46.27 46.46 46.90 46.06 44.23 47.46 45.83 42.61 39.30 37.89 45.34 48.20 45.53 43.32 43.24 42.30 35.49 27.24 29.51 33.45 41.48 34.52 39.49 47.32 49.38 49.71 50.04 51.15 50.92 50.70
47.90 56.91 56.09 59.16 60.92 58.36 51.29 42.39 43.17 46.80 48.55 46.37 46.08 42.62 43.19 45.90 45.98 45.72 45.03 44.08 45.37 46.07 40.68 39.53 39.70 47.39 47.97 48.08 46.62 43.43 40.08 43.86 37.73 38.15 33.11 37.15 40.88 45.33 47.84 48.35 48.82 48.51 49.37 49.76 51.03
49.33 55.74 56.50 61.87 60.36 55.49 47.06 41.97 45.79 49.74 49.30 47.21 41.36 43.91 40.76 43.15 43.15 43.48 43.92 46.78 45.31 47.54 47.76 43.37 37.43 44.48 46.13 47.47 47.43 44.75 45.94 37.64 38.80 28.64 27.66 34.48 36.30 37.74 43.00 44.98 47.20 47.16 48.13 49.88 51.88
51.55 53.39 58.12 60.56 58.61 50.22 42.36 44.71 47.69 50.38 48.98 44.35 42.12 41.86 42.73 41.54 42.16 41.39 42.32 45.43 46.70 46.31 47.89 45.40 42.17 41.07 44.52 42.53 41.39 42.07 40.56 41.47 40.27 37.88 30.85 29.35 34.15 44.17 44.22 46.41 46.65 48.22 48.89 50.36 51.15
51.27 48.40 57.86 58.35 46.94 48.80 45.88 48.16 47.33 47.47 49.05 46.62 46.12 44.34 42.71 43.10 42.25 42.18 41.78 44.20 47.73 47.43 43.42 46.32 42.71 37.26 39.69 45.63 46.46 44.83 41.38 40.69 34.74 32.87 35.50 34.40 34.73 45.99 47.07 47.65 48.00 48.65 49.41 50.50 51.99
46.01 49.54 57.99 54.69 42.61 44.87 47.38 46.71 47.26 46.26 45.60 44.95 43.97 45.74 46.30 43.47 40.04 42.81 43.76 47.10 47.72 46.64 44.56 45.72 40.21 34.18 35.97 40.91 44.49 39.24 39.95 39.90 39.32 38.72 34.75 32.20 35.26 46.32 48.16 45.91 46.02 47.53 48.01 50.36 52.15
47.67 44.71 51.45 51.03 50.59 45.96 43.84 43.59 43.03 47.28 46.02 46.72 45.27 45.88 44.33 42.48 44.26 41.40 42.67 46.28 48.05 47.59 47.91 46.58 40.60 36.86 32.18 35.41 39.88 36.30 39.17 40.35 37.18 32.54 35.07 35.90 38.41 42.49 45.29 45.19 46.55 47.21 47.62 48.43 52.13
49.60 46.43 47.80 41.90 44.29 44.03 44.94 43.81 42.50 42.15 46.13 45.71 43.64 43.65 42.37 39.29 39.83 39.40 42.41 43.60 45.66 48.24 46.18 43.24 36.29 38.73 39.14 39.90 39.61 38.58 38.35 39.29 36.14 36.91 33.83 37.39 37.91 42.28 45.18 46.81 48.49 47.51 47.51 50.09 50.16
43.51 42.36 45.32 42.73 45.50 44.92 43.34 41.67 41.28 42.69 42.16 39.99 40.13 41.88 42.12 39.08 39.79 37.59 40.01 40.62 40.43 44.21 43.27 42.55 35.76 38.33 35.72 38.87 38.56 36.45 38.60 38.90 38.96 39.69 39.85 39.62 39.27 45.42 47.43 48.38 47.50 48.56 49.03 49.80 50.67
47.40 47.18 43.75 41.47 43.07 42.53 41.54 41.28 41.21 42.49 42.87 43.32 41.99 40.41 39.35 40.92 43.07 43.30 43.77 43.34 42.58 40.19 39.49 39.18 36.84 34.73 30.88 36.55 36.55 31.19 37.18 39.12 40.00 41.81 40.99 37.05 41.27 46.02 44.49 46.28 47.24 48.02 49.20 49.11 50.86
MSLP
1018.93 1018.68 1018.37 1018.04 1017.76 1017.44 1017.16 1016.81 1016.53 1016.27 1016.06 1015.80 1015.57 1015.31 1015.06 1014.71 1014.08 1012.93 1011.36 1009.89 1009.57 1009.89 1009.83 1009.13 1007.86 1007.45 1007.11 1006.59 1005.93 1005.53 1004.75 1003.47 1002.87 1002.09 1001.25 1000.76 1000.50 1000.69 1001.43 1002.09 1002.73 1002.37 1002.38 1002.19 1001.89
1018.90 1018.57 1018.23 1017.90 1017.60 1017.28 1016.95 1016.59 1016.28 1015.95 1015.63 1015.32 1015.08 1014.89 1014.69 1014.44 1013.42 1010.87 1009.70 1009.45 1009.48 1009.70 1009.34 1008.13 1007.18 1006.72 1006.25 1005.85 1005.49 1004.89 1003.91 1003.05 1002.71 1001.63 1000.79 1000.26 1000.04 1000.07 1000.70 1001.53 1002.12 1002.28 1002.69 1002.54 1002.34
1018.91 1018.53 1018.15 1017.78 1017.47 1017.17 1016.86 1016.53 1016.13 1015.74 1015.39 1015.09 1014.82 1014.63 1014.51 1014.23 1011.82 1008.85 1009.37 1009.30 1009.55 1009.71 1009.07 1007.64 1006.74 1005.85 1005.38 1005.01 1004.52 1004.17 1002.97 1002.84 1002.07 1001.49 1000.99 1000.53 1000.04 999.59 999.91 1000.96 1001.77 1002.48 1002.63 1002.47 1002.51
1018.91 1018.43 1018.04 1017.72 1017.41 1017.07 1016.73 1016.37 1015.99 1015.61 1015.29 1015.03 1014.82 1014.65 1014.32 1013.80 1010.09 1008.79 1009.12 1009.31 1009.64 1009.44 1008.47 1006.84 1006.29 1005.82 1005.20 1004.43 1003.78 1003.11 1002.63 1002.32 1002.10 1001.61 1001.23 1000.73 1000.38 999.93 999.94 1000.57 1001.32 1002.30 1002.69 1002.96 1003.35
1018.79 1018.39 1018.01 1017.67 1017.27 1016.90 1016.52 1016.12 1015.79 1015.48 1015.16 1014.94 1014.80 1014.68 1013.71 1011.49 1008.39 1008.65 1008.84 1009.20 1009.13 1008.61 1007.43 1006.09 1005.58 1004.93 1004.41 1003.76 1003.20 1002.47 1002.11 1001.89 1001.67 1001.41 1001.33 1001.23 1000.85 1000.60 1000.06 1000.45 1001.22 1002.06 1002.54 1003.11 1003.43
1018.65 1018.24 1017.86 1017.46 1017.07 1016.68 1016.31 1015.94 1015.61 1015.28 1014.96 1014.74 1014.67 1014.72 1013.33 1009.61 1007.01 1008.17 1008.13 1008.27 1008.05 1007.13 1006.40 1006.21 1005.39 1004.93 1004.85 1004.06 1003.32 1002.54 1002.04 1001.75 1001.68 1001.71 1001.57 1001.13 1001.38 1001.32 1000.64 1000.96 1001.15 1001.63 1001.90 1002.75 1003.37
1018.46 1018.05 1017.67 1017.24 1016.85 1016.39 1015.93 1015.52 1015.20 1014.93 1014.62 1014.47 1014.52 1014.10 1011.63 1008.24 1006.66 1006.91 1007.42 1007.35 1006.77 1006.89 1006.48 1005.82 1005.83 1005.73 1005.05 1004.28 1003.77 1003.29 1002.89 1002.47 1002.04 1002.01 1001.67 1001.52 1001.15 1000.77 1001.13 1001.27 1001.12 1001.03 1001.23 1001.84 1002.82
1018.22 1017.78 1017.35 1016.93 1016.48 1016.04 1015.55 1015.13 1014.79 1014.47 1014.21 1014.19 1014.35 1013.41 1009.76 1006.63 1006.62 1006.79 1006.84 1006.85 1006.73 1006.76 1006.67 1006.54 1006.31 1006.05 1005.60 1004.97 1004.24 1003.66 1003.28 1002.35 1001.53 1001.15 1000.91 1001.50 1000.18 1000.67 1000.75 1000.71 1000.55 1000.76 1000.75 1001.11 1001.97
1017.98 1017.54 1017.06 1016.61 1016.13 1015.68 1015.18 1014.75 1014.24 1013.81 1013.77 1013.98 1013.79 1012.10 1007.86 1007.06 1006.91 1006.50 1006.50 1006.28 1005.92 1006.39 1006.44 1006.44 1006.40 1006.14 1005.51 1004.82 1004.05 1003.32 1002.44 1001.63 1000.66 1000.05 999.84 999.85 999.91 1000.33 1000.41 1000.24 1000.04 999.83 1000.03 1000.67 1001.43
1017.75 1017.26 1016.77 1016.31 1015.80 1015.35 1014.85 1014.46 1013.81 1013.84 1013.53 1012.81 1011.51 1010.25 1007.29 1006.00 1006.23 1006.05 1006.11 1006.21 1006.11 1006.08 1006.01 1006.11 1005.97 1005.50 1004.89 1004.39 1003.23 1002.42 1001.35 1000.68 1000.01 999.80 999.24 999.81 1000.07 1000.57 1000.27 1000.23 999.90 1000.01 1000.56 1000.94 1001.24
1017.47 1016.95 1016.45 1015.97 1015.52 1015.30 1014.58 1013.62 1013.62 1012.57 1011.39 1009.33 1008.23 1007.19 1006.06 1005.91 1006.06 1006.19 1005.94 1006.14 1006.29 1006.17 1005.71 1005.09 1004.94 1004.16 1003.57 1003.08 1002.65 1002.30 1002.07 1001.67 1001.25 1000.62 1000.29 999.96 999.90 1000.06 1000.28 1000.33 999.99 999.77 1000.04 1000.51 1001.05
1017.37 1016.74 1016.11 1015.59 1015.23 1015.08 1014.85 1011.87 1010.28 1009.98 1008.73 1007.08 1006.56 1006.03 1005.77 1005.79 1005.59 1005.70 1005.72 1005.94 1005.74 1005.53 1004.95 1004.71 1003.87 1003.64 1003.33 1003.21 1002.87 1002.89 1002.95 1002.57 1002.13 1001.55 1001.25 1000.77 1000.23 1000.31 1000.47 1000.26 1000.03 999.71 999.46 999.62 1000.16
1017.16 1016.54 1015.97 1015.39 1014.84 1014.39 1012.20 1010.33 1009.58 1009.08 1008.24 1005.42 1005.24 1005.20 1005.23 1005.71 1005.23 1004.57 1005.11 1005.35 1005.35 1004.87 1004.47 1003.89 1003.15 1002.79 1002.93 1003.23 1002.91 1003.10 1003.16 1002.86 1002.46 1002.03 1001.60 1001.14 1000.54 1000.63 1000.27 999.59 999.11 998.83 999.01 999.19 999.53
1016.94 1016.29 1015.71 1015.15 1014.90 1010.91 1009.87 1009.70 1009.11 1009.17 1007.57 1004.39 1004.55 1004.24 1004.31 1004.91 1004.55 1004.49 1004.30 1004.83 1004.80 1004.53 1004.12 1003.45 1002.92 1002.56 1002.65 1002.97 1003.22 1002.85 1002.79 1002.58 1002.54 1002.35 1001.83 1002.06 1000.34 1000.12 999.40 998.36 997.77 997.49 998.03 998.31 998.86
1016.84 1016.13 1015.49 1015.50 1013.64 1010.51 1009.94 1009.53 1009.41 1009.29 1006.42 1004.31 1003.45 1003.64 1003.67 1004.33 1003.50 1003.76 1004.09 1004.33 1004.36 1004.15 1004.01 1003.13 1002.87 1002.53 1002.25 1002.59 1003.15 1002.78 1002.91 1003.15 1003.26 1003.00 1002.57 1001.91 1001.26 999.24 999.05 997.79 997.15 996.92 997.37 998.13 998.81
1016.74 1016.10 1015.61 1013.09 1013.19 1010.36 1009.55 1009.65 1009.55 1008.30 1004.66 1002.93 1003.01 1003.45 1003.73 1003.58 1003.63 1003.55 1003.90 1004.39 1004.49 1004.24 1003.80 1003.21 1002.97 1002.54 1002.01 1002.05 1002.34 1002.80 1003.09 1003.38 1003.53 1003.20 1002.25 1001.28 1000.91 998.82 998.13 996.85 995.85 995.66 997.05 998.05 998.97
1016.46 1015.83 1015.76 1013.29 1011.09 1009.93 1010.00 1009.53 1008.66 1006.16 1003.19 1002.35 1002.41 1002.61 1002.67 1002.68 1002.48 1002.51 1002.90 1003.17 1003.48 1003.46 1002.99 1002.30 1001.53 1001.25 1001.31 1001.27 1001.64 1002.22 1002.92 1002.75 1002.65 1002.27 1001.38 1000.97 1000.09 999.58 998.43 997.31 996.59 996.17 997.39 998.32 999.19
1015.66 1015.14 1013.40 1012.49 1011.34 1010.44 1010.22 1009.43 1007.61 1004.65 1002.92 1002.70 1002.93 1002.97 1002.73 1002.47 1001.97 1001.96 1002.09 1002.07 1002.39 1002.65 1002.37 1001.93 1000.95 1000.60 1000.19 1000.30 1000.99 1001.22 1001.99 1002.34 1002.63 1002.93 1002.17 1000.95 1000.59 999.74 999.09 998.15 997.18 997.11 997.52 998.40 999.09
1014.66 1012.65 1012.17 1011.17 1010.82 1010.84 1010.47 1008.61 1006.15 1004.35 1003.69 1003.71 1003.82 1003.51 1002.69 1001.87 1001.77 1001.75 1001.93 1002.17 1002.24 1002.57 1002.54 1002.01 1000.90 1000.60 1000.30 1000.16 1000.31 1000.78 1001.23 1002.05 1002.52 1003.66 1003.83 1001.90 1000.22 998.89 998.05 997.67 998.00 997.61 998.11 998.74 999.15
1015.01 1012.04 1010.07 1009.63 1010.61 1010.91 1010.20 1008.09 1006.28 1005.09 1004.09 1004.48 1004.48 1004.42 1003.55 1003.05 1002.73 1002.54 1002.27 1002.35 1002.16 1002.39 1002.91 1002.79 1001.76 1001.64 1000.78 1000.60 1000.47 1001.40 1001.95 1002.13 1002.83 1004.03 1003.27 1001.41 1000.13 999.15 998.71 997.18 998.39 998.44 998.59 998.93 999.28
1014.59 1011.24 1010.10 1009.89 1010.63 1010.35 1009.09 1007.27 1005.81 1004.93 1004.83 1005.29 1005.11 1004.87 1004.59 1004.27 1004.07 1003.57 1003.01 1002.73 1002.77 1002.89 1002.59 1002.97 1002.87 1002.21 1002.02 1001.38 1000.96 1001.52 1002.33 1002.63 1003.25 1003.73 1003.43 1002.23 1000.73 1000.33 1000.11 999.84 999.63 999.14 998.67 998.81 998.99
1013.96 1010.78 1009.82 1010.05 1010.15 1008.92 1007.86 1006.47 1005.97 1005.40 1005.27 1005.23 1005.49 1005.27 1005.03 1004.86 1004.57 1004.22 1003.64 1003.49 1003.48 1003.29 1002.88 1003.42 1003.32 1002.92 1003.11 1002.42 1001.92 1002.17 1002.67 1003.92 1004.07 1004.31 1004.15 1003.23 1000.62 1001.53 1000.90 1000.66 1001.15 1000.13 999.29 998.86 998.85
1014.94 1011.28 1009.70 1009.85 1009.34 1008.37 1007.86 1007.39 1007.26 1006.35 1005.89 1005.81 1005.75 1005.75 1005.54 1005.17 1005.01 1004.69 1004.24 1004.18 1004.01 1003.49 1003.41 1004.09 1004.46 1004.16 1003.56 1003.44 1002.50 1003.92 1004.58 1005.49 1005.57 1005.39 1003.77 1003.01 1000.07 1000.20 1000.23 1001.74 1002.00 1002.04 1000.92 999.60 998.03
1015.44 1011.47 1009.90 1009.93 1009.52 1009.47 1009.17 1008.83 1008.11 1007.57 1006.81 1006.23 1005.94 1006.31 1006.09 1005.63 1005.48 1004.96 1004.57 1004.35 1003.99 1003.71 1004.52 1005.30 1005.59 1005.39 1004.80 1004.21 1003.99 1004.82 1005.16 1005.26 1005.91 1005.89 1004.29 1002.45 1000.39 999.87 999.95 1000.60 1000.68 1001.05 1000.88 1000.71 998.42
1015.21 1012.65 1012.38 1011.13 1010.48 1010.79 1010.38 1010.42 1009.13 1007.95 1007.41 1007.04 1006.71 1006.69 1006.44 1006.03 1005.83 1005.56 1005.23 1004.60 1004.41 1004.40 1005.14 1006.49 1006.40 1006.28 1005.67 1005.13 1004.70 1003.86 1003.89 1003.62 1004.81 1004.78 1004.65 1002.46 1000.57 999.70 999.33 999.15 999.39 999.63 999.39 998.63 997.09
1016.61 1015.62 1014.35 1013.32 1012.26 1011.70 1011.37 1011.16 1010.49 1009.14 1008.72 1008.43 1008.10 1007.52 1007.38 1007.04 1006.89 1006.31 1006.04 1005.74 1005.45 1005.41 1005.31 1006.88 1007.22 1007.07 1005.93 1005.64 1005.03 1003.77 1003.20 1002.71 1002.35 1002.10 1001.92 1001.02 999.61 999.17 998.47 998.27 998.06 998.01 997.84 997.17 996.76
1018.38 1017.36 1016.58 1014.56 1013.25 1012.44 1012.34 1012.59 1012.03 1011.18 1009.97 1009.30 1008.90 1008.22 1007.73 1007.60 1007.45 1007.13 1006.79 1006.25 1006.14 1006.26 1006.31 1006.61 1006.71 1006.59 1005.58 1005.58 1004.79 1004.05 1003.11 1002.13 1001.41 1001.24 1000.98 1000.99 1000.98 999.99 999.56 999.33 999.14 998.60 998.45 998.15 997.17
Wind_Speed
16 15 15 14 14 14 14 15 14 13 13 13 13 14 14 15 19 15 11 2 4 3 2 11 13 12 15 17 19 20 16 17 23 23 20 18 19 12 13 15 15 18 16 20 9
16 16 16 15 14 14 15 15 15 14 14 14 14 15 15 15 17 16 4 9 7 4 8 12 12 14 13 16 17 19 17 24 22 22 21 19 21 18 17 13 17 14 15 20 22
17 16 16 15 15 14 15 15 14 14 14 14 15 15 15 14 11 4 8 8 5 5 12 13 11 14 16 16 19 21 21 22 22 22 21 21 22 22 12 13 12 14 17 18 21
18 18 16 16 16 16 16 15 15 14 14 14 14 14 15 8 3 9 10 7 6 10 16 13 10 13 15 18 19 23 23 22 23 22 21 23 21 22 14 17 14 11 8 8 12
17 17 17 17 16 16 15 15 15 14 14 14 13 12 11 10 8 12 12 9 9 12 16 10 9 13 15 17 19 21 21 20 20 19 19 21 23 21 22 16 13 16 11 7 9
17 16 17 16 16 16 16 15 14 15 15 14 12 10 8 11 15 13 11 11 13 11 11 7 10 9 11 15 17 18 16 19 14 19 21 20 18 24 21 16 19 18 20 12 11
16 17 17 17 17 16 16 15 14 15 15 13 9 8 11 17 3 13 11 10 9 7 8 10 6 11 12 14 13 14 19 19 19 17 21 18 21 25 20 21 24 23 19 17 11
17 16 17 17 17 17 17 17 16 14 13 12 8 9 9 11 5 8 11 10 7 8 9 11 10 13 14 15 17 18 16 18 18 22 23 21 25 21 20 22 23 24 19 13 12
19 17 17 17 16 16 16 17 18 12 9 8 7 10 11 5 10 10 11 11 9 6 9 8 8 13 14 14 14 15 17 22 23 22 19 17 22 15 19 18 19 16 12 13 11
19 17 17 17 16 16 16 15 9 3 7 10 12 10 9 11 10 9 9 9 6 10 9 11 11 12 13 12 14 18 20 15 18 12 15 15 17 17 17 17 15 9 12 12 12
21 19 18 16 16 13 14 6 7 8 13 16 3 12 3 1 2 8 9 8 10 11 12 14 12 13 16 17 18 16 17 17 21 21 17 16 17 14 14 18 20 15 17 17 15
22 20 19 17 16 11 8 9 8 8 11 17 18 13 7 3 8 12 13 11 12 13 15 14 14 15 16 16 18 14 17 19 20 20 18 20 22 18 19 20 20 20 18 13 14
21 20 19 17 14 7 13 6 7 9 9 15 13 13 12 12 13 10 14 12 15 15 15 16 16 17 9 15 16 15 17 19 21 20 22 21 20 19 25 26 26 23 19 16 14
22 20 18 17 5 8 5 6 9 6 7 11 8 9 11 12 15 16 10 14 14 18 17 16 16 16 16 12 14 17 16 17 17 18 15 16 17 20 21 22 18 12 13 15 12
23 22 19 8 12 9 9 8 9 4 7 7 12 8 8 13 3 11 11 12 16 17 18 17 16 17 17 15 16 19 16 16 20 20 21 21 15 18 21 22 21 18 18 9 6
25 22 21 6 8 13 8 7 6 7 8 9 7 8 11 14 15 11 10 12 12 18 19 22 21 23 22 20 16 18 16 17 18 18 17 24 22 21 18 20 17 14 14 12 7
25 24 14 10 9 11 9 7 7 8 4 5 4 10 12 13 16 18 17 18 15 18 18 22 24 25 23 25 22 21 17 14 17 14 15 22 14 11 15 2 12 14 11 11 9
28 22 9 9 12 8 7 8 9 13 13 8 4 12 16 17 17 17 18 18 18 20 18 20 20 20 17 16 19 21 18 11 16 15 17 22 7 12 12 17 10 5 14 6 5
31 3 6 11 9 4 7 9 12 16 13 11 16 18 20 16 18 16 11 16 17 15 19 19 26 22 19 17 14 17 19 18 18 13 12 17 27 22 20 22 11 8 7 8 6
9 9 10 10 4 4 7 13 21 22 12 9 16 14 20 18 17 17 14 10 9 13 9 16 22 20 21 21 17 16 16 15 9 7 18 16 19 11 18 10 11 8 9 7 7
5 6 6 4 3 5 9 14 17 17 13 11 17 19 20 20 20 21 22 20 17 22 15 16 17 17 21 19 21 13 18 18 16 13 16 17 15 4 3 2 12 11 10 10 9
6 6 7 4 6 8 12 14 12 17 16 15 17 19 20 19 20 20 20 19 18 23 18 17 13 16 18 23 21 19 18 17 16 12 12 12 17 10 7 6 12 16 8 11 12
8 9 5 4 6 8 17 16 22 20 12 14 16 18 21 20 20 19 18 16 21 18 12 8 7 11 13 18 15 7 18 20 15 12 18 14 17 12 9 3 10 21 22 20 11
6 5 3 5 8 8 12 17 17 21 21 17 15 13 17 17 17 18 20 20 22 20 9 4 13 18 16 22 21 11 19 12 11 9 14 17 23 17 13 16 16 21 14 22 17
5 5 4 6 10 15 11 20 23 19 17 15 15 17 19 17 18 20 20 21 21 18 4 2 14 19 19 22 24 24 25 21 18 18 19 24 25 22 18 19 15 19 21 29 18
6 7 9 12 11 13 10 11 22 17 19 19 19 18 18 17 17 20 21 18 18 19 19 11 5 16 20 19 25 28 26 27 27 23 28 25 26 21 22 20 21 20 20 14 13
8 8 8 9 13 12 9 12 22 24 16 16 23 20 18 19 19 18 19 20 18 17 17 16 14 16 19 19 20 14 18 28 20 20 22 15 20 21 21 20 19 18 16 17 12
Wind_Direction
339 338 335 335 333 329 331 328 324 319 316 312 310 310 312 314 302 257 250 50 183 96 294 262 254 238 235 244 244 244 248 252 252 253 264 264 258 188 212 208 249 263 242 255 305
336 335 334 333 331 330 328 326 324 318 315 314 312 313 316 321 298 270 127 143 117 76 239 221 229 224 236 230 235 235 242 245 253 268 273 269 258 219 216 207 236 236 267 247 265
335 332 331 333 331 330 328 324 319 315 314 312 311 312 317 317 282 98 156 134 144 239 256 280 278 279 234 239 234 230 245 253 262 267 270 275 278 283 200 235 209 232 248 238 247
334 332 332 331 329 324 321 319 315 311 307 306 307 312 312 285 313 120 146 137 199 251 265 246 237 244 243 248 239 246 248 248 255 264 278 280 285 283 250 214 192 222 261 296 305
332 329 327 325 320 320 317 313 309 303 301 299 301 315 303 233 258 141 144 175 224 239 249 269 268 253 250 252 252 254 251 258 261 265 266 269 277 280 274 270 199 222 226 273 297
331 328 324 321 317 315 311 307 299 295 290 289 293 303 252 257 115 145 185 181 241 234 269 282 281 331 315 290 282 290 278 278 276 275 260 260 263 270 264 269 275 220 229 214 255
330 327 323 318 315 311 306 300 298 291 278 270 273 271 262 248 325 152 214 222 243 276 285 274 287 296 292 289 270 283 268 271 269 262 266 275 255 251 259 257 256 256 247 211 205
330 326 321 318 313 309 306 303 300 288 264 254 251 256 263 221 244 216 204 235 245 254 264 295 295 280 278 285 284 276 265 267 260 247 240 235 254 255 251 245 247 254 253 228 214
332 326 320 313 308 304 303 303 299 292 240 218 229 221 251 116 220 238 238 237 209 234 257 266 282 271 275 260 261 247 256 258 262 248 246 227 245 261 264 264 269 242 265 224 219
333 326 320 313 306 303 300 289 319 251 219 203 259 254 256 236 191 229 222 245 260 262 248 235 243 249 243 242 257 269 266 285 273 250 250 228 248 264 274 267 271 250 261 258 249
336 330 321 311 305 309 310 206 204 200 232 250 212 244 276 340 72 226 227 213 244 250 260 257 241 243 254 258 260 287 296 298 294 300 308 298 279 274 284 285 281 260 211 218 232
337 332 323 316 308 309 282 263 27 311 294 251 238 249 265 273 248 223 220 217 231 246 252 237 250 258 259 269 285 296 284 280 283 280 279 278 273 277 276 271 268 268 267 244 224
336 333 328 320 315 270 234 4 303 305 275 281 214 229 225 217 239 237 203 228 247 257 250 262 275 293 280 287 285 261 263 272 278 286 288 290 284 279 265 252 249 247 250 252 245
338 334 330 325 291 262 250 346 311 13 274 203 194 228 209 199 242 238 243 220 245 251 265 270 283 276 292 261 270 271 276 286 294 289 280 286 283 282 287 291 274 231 235 233 230
336 334 329 322 312 292 359 319 339 254 286 154 145 92 191 209 92 199 224 230 251 269 276 266 265 277 256 247 271 281 292 296 296 288 288 269 266 277 267 258 246 237 204 203 230
332 331 332 248 222 262 325 334 260 239 255 157 152 211 223 218 246 263 187 224 267 282 278 276 278 279 272 275 259 256 290 277 273 273 260 263 256 261 258 268 258 214 160 169 179
326 318 313 306 288 341 327 269 253 246 134 231 201 210 234 249 250 222 229 235 238 253 256 261 256 242 242 255 247 253 247 264 257 248 252 259 284 320 302 242 319 133 146 168 189
320 310 244 240 284 321 288 252 253 278 336 24 335 290 272 281 269 254 252 255 250 263 260 271 272 274 294 273 257 258 247 254 271 279 281 287 218 266 309 316 237 182 176 168 186
312 200 236 222 237 301 274 246 252 274 341 339 327 298 281 275 258 261 270 283 292 289 284 295 288 295 264 280 268 251 240 260 283 311 288 278 276 276 232 230 241 228 184 241 209
314 285 241 141 158 252 256 256 289 292 311 319 299 303 294 297 308 300 271 254 274 287 269 284 293 292 297 294 262 276 292 274 257 263 269 268 283 299 343 166 232 226 239 227 195
273 254 100 159 164 241 254 272 291 322 348 318 297 294 295 302 303 297 294 293 302 296 283 276 275 279 285 272 271 253 236 269 263 241 252 266 269 151 262 173 214 258 202 216 222
303 283 128 170 248 248 253 284 326 310 302 288 287 286 281 286 287 288 295 300 308 293 279 297 305 288 264 288 293 271 273 256 258 248 232 285 278 133 243 46 315 292 253 243 232
299 289 155 214 269 313 330 326 330 303 318 317 304 305 300 292 291 288 290 302 301 298 299 310 232 283 293 290 265 8 321 310 323 324 267 261 263 257 181 211 314 296 317 335 266
282 303 128 209 259 318 339 319 311 318 301 295 288 296 299 289 283 285 292 288 285 289 103 336 283 269 270 278 293 300 278 260 243 289 295 268 281 288 280 208 199 240 285 287 269
267 320 16 299 324 324 330 311 306 304 318 331 314 306 295 302 307 300 300 306 311 324 94 289 265 261 272 298 298 289 288 277 230 236 249 269 271 277 279 287 263 220 226 257 265
338 343 346 303 291 299 308 305 297 314 329 316 299 308 305 301 298 301 304 302 299 306 311 168 227 267 274 276 272 279 289 274 271 250 238 265 274 278 271 266 267 276 284 306 331
358 348 316 291 296 283 320 323 309 315 312 318 314 311 304 305 316 313 304 287 282 280 281 289 291 291 288 291 300 291 271 276 284 306 287 296 336 349 347 313 330 353 338 314 284